FW4778 Weather Reports


time (UTC)temp
C
wind
direction
speed
KPH
gust
KPH
rain 1hr
cm
rain 24hr
cm
rain mn
cm
humidity
%
barometer
mb
20260510091240 16 346 14.5 27.4 0.00 0.00 0.00 65 1014.6
20260510090248 17 360 6.4 24.1 0.00 0.00 0.00 67 1014.6
20260510085306 16 32 12.9 27.4 0.00 0.00 0.00 66 1014.5
20260510084253 16 47 14.5 22.5 0.00 0.00 0.00 65 1014.6
20260510083241 16 355 11.3 22.5 0.00 0.00 0.00 67 1014.7
20260510082306 16 355 11.3 25.7 0.00 0.00 0.00 68 1014.7
20260510081225 16 31 11.3 24.1 0.00 0.00 0.00 70 1014.8
20260510080226 15 40 11.3 22.5 0.00 0.00 0.00 71 1014.8
20260510075225 15 32 12.9 22.5 0.00 0.00 0.00 71 1014.8
20260510074249 15 9 11.3 19.3 0.00 0.00 0.00 74 1014.9
20260510073228 14 31 8.0 19.3 0.00 0.00 0.00 76 1015.0
20260510072248 14 346 11.3 17.7 0.00 0.00 0.00 77 1015.1
20260510071230 13 40 6.4 20.9 0.00 0.00 0.00 79 1015.1
20260510070236 13 25 11.3 22.5 0.00 0.00 0.00 80 1015.1
20260510065231 13 24 6.4 17.7 0.00 0.00 0.00 82 1015.1
20260510064232 12 12 11.3 22.5 0.00 0.00 0.00 83 1015.2
20260510063241 12 355 8.0 16.1 0.00 0.00 0.00 86 1015.1
20260510062324 12 22 4.8 19.3 0.00 0.00 0.00 87 1015.2
20260510061245 11 39 8.0 17.7 0.00 0.00 0.00 88 1015.3
20260510060242 11 13 6.4 19.3 0.00 0.00 0.00 89 1015.2
20260510055306 11 70 8.0 17.7 0.00 0.00 0.00 90 1015.1
20260510054239 11 30 11.3 17.7 0.00 0.00 0.00 90 1015.2
20260510053307 11 46 8.0 20.9 0.00 0.00 0.00 90 1015.2
20260510052258 11 9 9.7 14.5 0.00 0.00 0.00 90 1015.1
20260510051248 11 11 6.4 12.9 0.00 0.00 0.00 90 1015.1
20260510050244 11 11 9.7 16.1 0.00 0.00 0.00 90 1015.2
20260510045243 11 5 9.7 12.9 0.00 0.00 0.00 90 1015.2
20260510044253 11 27 9.7 14.5 0.00 0.00 0.00 90 1015.1
20260510043231 11 36 8.0 14.5 0.00 0.00 0.00 90 1015.1
20260510042242 11 360 4.8 14.5 0.00 0.00 0.00 89 1015.1
20260510041233 11 9 8.0 16.1 0.00 0.00 0.00 89 1015.1
20260510040232 11 42 6.4 12.9 0.00 0.00 0.00 88 1015.1
20260510035259 11 34 8.0 14.5 0.00 0.00 0.00 89 1015.1
20260510034259 11 11 9.7 16.1 0.00 0.00 0.00 88 1015.1
20260510033247 11 5 8.0 14.5 0.00 0.00 0.00 88 1015.1
20260510032256 11 43 8.0 12.9 0.00 0.00 0.00 87 1015.2
20260510031247 11 12 4.8 9.7 0.00 0.00 0.00 87 1015.3
20260510030225 11 12 4.8 9.7 0.00 0.00 0.00 86 1015.4
20260510025224 11 13 4.8 14.5 0.00 0.00 0.00 86 1015.4
20260510024226 11 349 4.8 9.7 0.00 0.00 0.00 85 1015.3
20260510023226 11 5 4.8 12.9 0.00 0.00 0.00 85 1015.3
20260510022244 11 33 6.4 12.9 0.00 0.00 0.00 85 1015.3
20260510021228 11 38 4.8 6.4 0.00 0.00 0.00 84 1015.4
20260510020228 10 36 4.8 9.7 0.00 0.00 0.00 84 1015.5
20260510015234 11 27 4.8 6.4 0.00 0.00 0.00 82 1015.5
20260510014235 11 43 3.2 6.4 0.00 0.00 0.00 81 1015.6
20260510013228 11 28 1.6 6.4 0.00 0.00 0.00 80 1015.6
20260510012249 11 40 4.8 8.0 0.00 0.00 0.00 80 1015.7
20260510011232 11 15 3.2 6.4 0.00 0.00 0.00 79 1015.6
20260510010243 11 43 6.4 9.7 0.00 0.00 0.00 79 1015.6
20260510005241 11 11 6.4 12.9 0.00 0.00 0.00 78 1015.7
20260510004310 12 34 6.4 9.7 0.00 0.00 0.00 77 1015.8
20260510003250 12 21 4.8 12.9 0.00 0.00 0.00 77 1015.8
20260510002246 12 37 4.8 9.7 0.00 0.00 0.00 77 1015.7
20260510001227 12 44 4.8 8.0 0.00 0.00 0.00 76 1015.9
20260510000251 12 29 4.8 6.4 0.00 0.00 0.00 76 1016.2
20260509235229 12 5 4.8 8.0 0.00 0.00 0.00 76 1016.0
20260509234228 12 28 4.8 8.0 0.00 0.00 0.00 75 1016.2
20260509233238 12 44 4.8 8.0 0.00 0.00 0.00 74 1016.1
20260509232248 12 42 4.8 6.4 0.00 0.00 0.00 74 1016.2
20260509231232 12 11 3.2 8.0 0.00 0.00 0.00 73 1016.3
20260509230242 12 17 4.8 8.0 0.00 0.00 0.00 73 1016.3
20260509225243 12 28 3.2 6.4 0.00 0.00 0.00 72 1016.2
20260509224244 13 28 4.8 11.3 0.00 0.00 0.00 72 1016.2
20260509223247 13 28 6.4 9.7 0.00 0.00 0.00 72 1016.2
20260509222256 13 30 4.8 9.7 0.00 0.00 0.00 72 1016.1
20260509221229 13 20 4.8 8.0 0.00 0.00 0.00 71 1016.3
20260509220238 13 48 3.2 9.7 0.00 0.00 0.00 71 1016.3
20260509215236 13 52 3.2 9.7 0.00 0.00 0.00 70 1016.3
20260509214246 13 31 4.8 8.0 0.00 0.00 0.00 70 1016.4
20260509213247 14 42 4.8 9.7 0.00 0.00 0.00 69 1016.2
20260509212330 14 12 6.4 9.7 0.00 0.00 0.00 68 1016.2
20260509211233 15 42 4.8 14.5 0.00 0.00 0.00 68 1016.3
20260509210254 15 30 4.8 11.3 0.00 0.00 0.00 67 1016.0
20260509205306 15 27 6.4 12.9 0.00 0.00 0.00 66 1016.0
20260509204232 15 47 6.4 12.9 0.00 0.00 0.00 65 1016.1
20260509203257 15 59 4.8 12.9 0.00 0.00 0.00 65 1016.0
20260509202248 15 5 6.4 12.9 0.00 0.00 0.00 65 1015.9
20260509201241 16 19 4.8 9.7 0.00 0.00 0.00 64 1016.1
20260509200238 16 42 6.4 12.9 0.00 0.00 0.00 63 1016.0
20260509195236 16 34 4.8 16.1 0.00 0.00 0.00 63 1016.0
20260509194243 16 22 6.4 14.5 0.00 0.00 0.00 63 1015.7
20260509193243 17 23 8.0 14.5 0.00 0.00 0.00 62 1015.6
20260509192305 17 27 4.8 9.7 0.00 0.00 0.00 61 1015.7
20260509191244 17 355 4.8 8.0 0.00 0.00 0.00 60 1015.6
20260509190246 18 340 1.6 6.4 0.00 0.00 0.00 59 1015.7
20260509185253 18 5 4.8 14.5 0.00 0.00 0.00 57 1015.7
20260509184254 18 338 4.8 9.7 0.00 0.00 0.00 57 1015.7
20260509183300 19 346 3.2 8.0 0.00 0.00 0.00 55 1015.6
20260509182252 20 42 1.6 4.8 0.00 0.00 0.00 54 1015.5
20260509181234 20 28 3.2 9.7 0.00 0.00 0.00 52 1015.7
20260509180243 20 36 4.8 9.7 0.00 0.00 0.00 51 1015.7
20260509175306 21 20 6.4 9.7 0.00 0.00 0.00 50 1015.5
20260509174251 21 36 1.6 6.4 0.00 0.00 0.00 51 1015.4
20260509173226 21 26 6.4 9.7 0.00 0.00 0.00 49 1015.3
20260509172249 21 43 3.2 8.0 0.00 0.00 0.00 51 1015.3
20260509171233 21 5 4.8 14.5 0.00 0.00 0.00 50 1015.3
20260509170234 22 9 3.2 9.7 0.00 0.00 0.00 47 1015.3
20260509165243 22 313 3.2 9.7 0.00 0.00 0.00 46 1015.4
20260509164259 22 355 0.0 3.2 0.00 0.00 0.00 47 1015.5
20260509163236 22 85 1.6 9.7 0.00 0.00 0.00 47 1015.6
20260509162256 22 360 4.8 9.7 0.00 0.00 0.00 48 1015.6
20260509161235 22 79 1.6 4.8 0.00 0.00 0.00 48 1015.6
20260509160247 22 30 1.6 6.4 0.00 0.00 0.00 48 1015.6
20260509155243 21 35 4.8 9.7 0.00 0.00 0.00 51 1015.6
20260509154243 22 44 3.2 11.3 0.00 0.00 0.00 49 1015.6
20260509153246 22 98 3.2 6.4 0.00 0.00 0.00 47 1015.7
20260509152326 22 87 4.8 24.1 0.00 0.00 0.00 53 1015.6
20260509151243 22 172 1.6 8.0 0.00 0.00 0.00 46 1015.8
20260509150245 22 312 4.8 8.0 0.00 0.00 0.00 47 1015.8
20260509145226 22 346 3.2 8.0 0.00 0.00 0.00 47 1015.8
20260509144314 21 53 1.6 4.8 0.00 0.00 0.00 50 1015.9
20260509143226 21 63 6.4 11.3 0.00 0.00 0.00 50 1016.0
20260509142248 22 67 1.6 12.9 0.00 0.00 0.00 49 1016.1
20260509141232 22 45 3.2 11.3 0.00 0.00 0.00 51 1016.2
20260509140230 22 355 3.2 12.9 0.00 0.00 0.00 50 1016.1
20260509135259 22 63 3.2 17.7 0.00 0.00 0.00 50 1016.1
20260509134237 22 360 4.8 14.5 0.00 0.00 0.00 52 1016.1
20260509133247 22 98 1.6 9.7 0.00 0.00 0.00 51 1016.3
20260509132301 22 34 3.2 9.7 0.00 0.00 0.00 51 1016.5
20260509131244 21 349 1.6 6.4 0.00 0.00 0.00 51 1016.7
20260509130252 21 94 3.2 14.5 0.00 0.00 0.00 51 1016.8
20260509125226 21 43 3.2 9.7 0.00 0.00 0.00 51 1017.0
20260509124228 21 121 3.2 8.0 0.00 0.00 0.00 54 1016.9
20260509123238 21 80 1.6 9.7 0.00 0.00 0.00 53 1016.9
20260509122251 21 130 3.2 6.4 0.00 0.00 0.00 54 1017.0
20260509121241 21 17 9.7 19.3 0.00 0.00 0.00 55 1017.2
20260509120241 21 90 1.6 11.3 0.00 0.00 0.00 55 1017.2
20260509115308 20 65 3.2 8.0 0.00 0.00 0.00 56 1017.3
20260509114227 20 59 3.2 8.0 0.00 0.00 0.00 58 1017.5
20260509113314 20 84 3.2 16.1 0.00 0.00 0.00 54 1017.6
20260509112302 20 38 6.4 14.5 0.00 0.00 0.00 52 1017.6
20260509111225 21 74 3.2 9.7 0.00 0.00 0.00 56 1017.7
20260509110248 21 106 1.6 12.9 0.00 0.00 0.00 55 1017.7
20260509105230 21 89 4.8 8.0 0.00 0.00 0.00 55 1017.8
20260509104319 20 105 3.2 12.9 0.00 0.00 0.00 52 1017.9
20260509103233 20 38 1.6 17.7 0.00 0.00 0.00 57 1017.9
20260509102310 20 33 6.4 14.5 0.00 0.00 0.00 53 1018.0
20260509101308 20 79 6.4 14.5 0.00 0.00 0.00 56 1018.0
20260509100252 20 78 6.4 17.7 0.00 0.00 0.00 55 1018.0
20260509095229 20 78 3.2 17.7 0.00 0.00 0.00 55 1018.0
20260509094226 20 94 3.2 6.4 0.00 0.00 0.00 56 1018.0
20260509093227 20 97 3.2 11.3 0.00 0.00 0.00 56 1018.1
20260509092306 20 20 3.2 8.0 0.00 0.00 0.00 58 1018.2